Regional Weather Roundup
Issued by NWS

Home | Current Version | Previous Version | Text Only | Print | Product List | Glossary Off
Versions: 1 2 3 4 5 6 7 8 9 10 11 12 13 14 15 16 17 18 19 20 21 22 23 24 25 26 27 28 29 30 31 32 33 34 35 36 37 38 39 40 41 42 43 44 45 46 47 48 49 50

000
ASUS43 KLMK 021202
RWRKY
KENTUCKY REGIONAL WEATHER ROUNDUP
NATIONAL WEATHER SERVICE LOUISVILLE KY
800 AM EDT SUN AUG 02 2015

NOTE "FAIR" INDICATES FEW OR NO CLOUDS BELOW 12,000 FEET
WITH NO SIGNIFICANT WEATHER AND/OR OBSTRUCTIONS TO VISIBILITY.

KYZ001>023-026-027-061>063-070>075-021300-
WESTERN AND SOUTH CENTRAL KENTUCKY

CITY           SKY/WX    TMP DP  RH WIND       PRES   REMARKS
PADUCAH        MOSUNNY   67  65  93 CALM      29.97R
HENDERSON      PTSUNNY   66  63  88 CALM      29.96S
OWENSBORO      MOSUNNY   67  65  93 CALM      29.99R
HOPKINSVILLE   NOT AVBL
BOWLING GREEN  MOSUNNY   64  61  90 CALM      30.01R
GLASGOW        NOT AVBL
$$

KYZ024-025-028>034-038-045-046-053-021300-
NORTH CENTRAL KENTUCKY

CITY           SKY/WX    TMP DP  RH WIND       PRES   REMARKS
LOUISVILLE/SDF MOSUNNY   67  61  81 CALM      29.99R
LOUISVILLE/LOU MOSUNNY   66  62  87 CALM      30.00R
FORT KNOX      NOT AVBL
$$

KYZ035>037-039>044-047>052-055>060-089>105-021300-
NORTHEAST KENTUCKY

CITY           SKY/WX    TMP DP  RH WIND       PRES   REMARKS
LEXINGTON      PTSUNNY   64  61  90 S6        30.01S
COVINGTON      MOSUNNY   66  62  87 CALM      29.99R
FRANKFORT      PTSUNNY   62  59  90 CALM      30.00S
$$

KYZ054-064>069-076>088-106>120-021300-
SOUTHEAST KENTUCKY

CITY           SKY/WX    TMP DP  RH WIND       PRES   REMARKS
JACKSON        PTSUNNY   62  60  93 CALM      30.04R
LONDON         SUNNY     62  57  83 CALM      30.03S
SOMERSET       NOT AVBL
MIDDLESBORO    FOG       59  59 100 CALM      30.06R VSB<1/4
MONTICELLO     MOSUNNY   62  61  97 CALM      30.05S
$$




USA.gov is the U.S. government's official web portal to all federal, state and local government web resources and services.